Location: Unspecified
(20.0000°S, 0.0000°E)
Time: 01:14:59
(UTC+00:00)

OTV 5 (USA 277) - Visible Passes

Search period start: 22 May 2019 00:00
Search period end: 01 June 2019 00:00
Orbit: 310 x 325 km, 54.5° (Epoch: 08 May)

Date Brightness Start Highest point End Pass type
(mag) Time Alt. Az. Time Alt. Az. Time Alt. Az.
22 May ? 05:48:48 10° SW 05:51:33 58° NW 05:54:16 10° NNE visible
22 May ? 18:52:32 10° N 18:52:33 10° N 18:52:33 10° N visible
23 May ? 04:32:49 13° ESE 04:32:49 13° ESE 04:33:37 10° E visible
23 May ? 19:06:32 10° NW 19:07:36 21° NW 19:07:36 21° NW visible
24 May ? 04:47:52 30° ENE 04:47:52 30° ENE 04:49:29 10° NE visible
24 May ? 19:22:08 10° W 19:22:38 12° W 19:22:38 12° W visible
25 May ? 05:02:56 16° N 05:02:56 16° N 05:03:46 10° N visible
25 May ? 18:01:53 10° NNW 18:04:26 43° NE 18:06:40 13° SE visible
26 May ? 18:16:40 10° WNW 18:19:07 31° SW 18:21:33 10° SSE visible
